Regional Weather Roundup
Issued by NWS

Home | Current Version | Previous Version | Text Only | Print | Product List | Glossary Off
Versions: 1 2 3 4 5 6 7 8 9 10 11 12 13 14 15 16 17 18 19 20 21 22 23 24 25 26 27 28 29 30 31 32 33 34 35 36 37 38 39 40 41 42 43 44 45 46 47 48 49 50

692
ASUS45 KSLC 210810
RWRUT

UTAH REGIONAL WEATHER ROUNDUP
NATIONAL WEATHER SERVICE SALT LAKE CITY UT
100 AM MST TUE FEB 21 2017

UTZ001>011-023>025-210900-

NORTHERN UTAH

CITY           SKY/WX    TMP DP  RH WIND       PRES   REMARKS
BRIGHAM CITY     N/A     49  39  67 S17       29.99S
HILL AFB       PTCLDY    49  38  65 S25G33    30.01R
LOGAN          CLOUDY    53  38  56 S15G26    29.96S
OGDEN          PTCLDY    50  38  63 S25G36    30.00R
SALT LAKE CITY PTCLDY    52  39  61 S28G38    30.02S
TOOELE VALLEY  MOCLDY    54  37  54 S32G48    30.00S
WENDOVER       CLEAR     52  34  50 SW24      29.95F
HEBER CITY     DRIZZLE   46  36  66 S5        30.10S
WEST JORDAN    CLEAR     53  46  78 SE33G44   30.03F

$$

UTZ011>015-024>027-210900-

CENTRAL/NORTHEAST UTAH

CITY           SKY/WX    TMP DP  RH WIND       PRES   REMARKS
PROVO AIRPORT  CLOUDY    52  38  58 CALM      30.12R
MOAB/CANYONLAN PTCLDY    47  37  68 CALM      30.21S
DELTA          CLEAR     46  39  76 S28G37    30.14F
PRICE          CLOUDY    40  36  86 NE5       30.22R
RICHFIELD      CLEAR     50  34  53 SW14      30.20S
ROOSEVELT      CLOUDY    36  32  87 CALM      30.18S
VERNAL         CLOUDY    34  31  88 CALM      30.16R

$$

UTZ013>016-019>022-027-210900-

SOUTHERN UTAH

CITY           SKY/WX    TMP DP  RH WIND       PRES   REMARKS
BRYCE CANYON   CLOUDY    37  33  85 SW10      30.32R WCI  30
CEDAR CITY     PTCLDY    43  38  82 SW8       30.24S
MILFORD        MOCLDY    47  41  80 S28G36    30.19F
ST GEORGE      CLOUDY    50  45  83 CALM      30.28R
HANKSVILLE     CLEAR     41  34  75 NE5       30.24R
KANAB          MOCLDY    48  41  76 SW8       30.35S
BLANDING       CLOUDY    43  35  74 CALM      30.40R

$$

REGIONAL REPORTS     COLORADO/ARIZONA

CITY           SKY/WX    TMP DP  RH WIND       PRES   REMARKS
CRAIG, CO      CLOUDY    42  30  62 SW8       30.18S
GRAND JUNCTION CLOUDY    44  38  79 E5        30.25R
RIFLE, CO      CLOUDY    39  33  79 CALM      30.26R
MONTROSE, CO   CLOUDY    43  32  65 SE7       30.31S
CORTEZ, CO     CLOUDY    40  35  83 N3        30.35S
COLORADO CITY  CLOUDY    45  41  87 E5        30.35R
PAGE, AZ       PTCLDY    47  37  68 CALM      30.27S
GRAND CANYON   CLEAR     33  33 100 SW8       30.38S WCI  26
KINGMAN, AZ    CLEAR     43  40  89 SE10      30.32S
FLAGSTAFF, AZ  CLEAR     32  32 100 VRB3      30.39S

$$

REGIONAL REPORTS    NEVADA/IDAHO/WYOMING

CITY           SKY/WX    TMP DP  RH WIND       PRES   REMARKS
LAS VEGAS, NV  PTCLDY    60  45  57 S12       30.18F
ELY, NY        CLEAR     45  33  63 S26G38    30.07F
ELKO, NV       CLOUDY    44  35  70 SW7       29.92R
POCATELLO, ID  CLOUDY    43  39  86 SW12      29.90S
BURLEY, ID     CLOUDY    43  37  79 CALM      29.87S
FORT BRIDGER,  CLOUDY    40  32  73 W13       30.06R WCI  33
EVANSTON, WY   CLOUDY    38  31  76 SW24      30.03R WCI  27
ROCK SPRINGS,  CLOUDY    39  29  67 SW21      30.04R WCI  29
KEMMERER, WY     N/A     37  32  81 SW20G29   30.02S WCI  27

$$




USA.gov is the U.S. government's official web portal to all federal, state and local government web resources and services.